World > North America > United States > Washington

Elk, Washington Regional Weather

Lat: 48.01N, Lon: 117.27W
Wx Zone: WAZ037Web Search

Helpful Tip: Abbreviated, 7 Day, 14 Day Forecasts. There is a weather forecast for every taste.

Feedback


°F Click to change Elk hourly weather to Imperial units.Click to change Elk hourly weather to Metric units. °C
Elk Weather Map
UTC Time: 4/15/2021, 04:41
Your Time:

Elk, WA Regional Weather

Expires:202104150500;;572068
ASUS46 KSEW 150420
RWRWA 

WASHINGTON REGIONAL WEATHER ROUNDUP
NATIONAL WEATHER SERVICE SEATTLE WA
900 PM PDT WED APR 14 2021

NOTE:"FAIR" INDICATES FEW OR NO CLOUDS BELOW 12,000 FEET WITH NO 
SIGNIFICANT WEATHER AND/OR OBSTRUCTIONS TO VISIBILITY.


WAZ036>038-150500-
NORTHEAST WASHINGTON
  
CITY           SKY/WX    TMP DP  RH WIND       PRES   REMARKS
SPOKANE GEIGER PTCLDY    56  23  27 E13       30.09R                  
SPOKANE FELTS  CLEAR     52  25  35 E10       30.09R                  
FAIRCHILD AFB  CLEAR     53  23  30 E18       30.08R                  
COEURDALENE,ID CLEAR     53  26  35 NE14      30.12R                  
DEER PARK      CLEAR     56  24  29 NE12      30.11R                  
$$


SKY/WX - Weather  TMP - Temperature  DP - Dew Point  RH - Relative Humidity
WIND - Wind Direction/Speed PRES - Barometric Pressure VSB - Visibility
WCI - Wind Chill Index E13G22 Wind - East Wind 13 mph/Gusts of 22 mph